|
Cosmos 1733 Rocket - Orbit
|
Unspecified;
07:41:45
| Home | Info | Passes |
|
View from above orbital plane
|
View from above satellite
|
Ground track
|
The orbit data is extracted from the following two-line orbital elements,
1 16612U 86018B 13138.43203442 .00000433 00000-0 49936-4 0 5965
2 16612 082.5183 254.2727 0018347 035.6017 078.2005 14.83217303370395
| Epoch (UTC): | 18 May 2013 10:22:07 |
| Eccentricity: | 0.0018347 |
| inclination: | 82.5183° |
| perigee height: | 606 km |
| apogee height: | 632 km |
| right ascension of ascending node: | 254.2727° |
| argument of perigee: | 35.6017° |
| revolutions per day: | 14.83217303 |
| mean anomaly at epoch: | 78.2005° |
| orbit number at epoch: | 37039 |
The dashed part of the orbit path shows where the satellite is in the earth's shadow,
|
|